SNB511 EDDP-LIPR

Flight info

Callsign SNB511
Flight time 1h 18m
Altitude 35000
Route GOLAT T202 ALOSO T703 ABERU DOSEL KUMOM DETSA CHI L612 AMLON
Aircraft R722/M-SDFGRWY/S

Departure

Time 2026-05-04 19:09
Airport Leipzig/Halle Airport (EDDP)

Arrival

Time 2026-05-04 20:28
Airport Federico Fellini International Airport (LIPR)
Time Latitude Longitude Altitude Speed Heading
2026-05-04 18:14 51.41903 12.22030 439 ft 0 kts 15°
2026-05-04 18:55 51.41880 12.22019 424 ft 4 kts 15°
2026-05-04 18:56 51.41855 12.22006 430 ft 4 kts 24°
2026-05-04 18:56 51.41833 12.21983 426 ft 4 kts 46°
2026-05-04 18:56 51.41822 12.21950 426 ft 4 kts 85°
2026-05-04 18:56 51.41823 12.21930 428 ft 0 kts 105°
2026-05-04 19:01 51.41822 12.21935 428 ft 1 kts 104°
2026-05-04 19:02 51.41818 12.21960 432 ft 3 kts 103°
2026-05-04 19:02 51.41811 12.22028 436 ft 9 kts 96°
2026-05-04 19:02 51.41790 12.22155 436 ft 15 kts 109°
2026-05-04 19:02 51.41758 12.22305 433 ft 14 kts 108°
2026-05-04 19:03 51.41729 12.22447 440 ft 12 kts 104°
2026-05-04 19:03 51.41714 12.22551 447 ft 8 kts 102°
2026-05-04 19:03 51.41700 12.22642 450 ft 10 kts 105°
2026-05-04 19:03 51.41680 12.22760 454 ft 12 kts 105°
2026-05-04 19:04 51.41655 12.22903 459 ft 15 kts 105°
2026-05-04 19:04 51.41626 12.23075 465 ft 14 kts 105°
2026-05-04 19:04 51.41604 12.23210 466 ft 15 kts 101°
2026-05-04 19:04 51.41603 12.23395 470 ft 19 kts 86°
2026-05-04 19:05 51.41613 12.23632 473 ft 23 kts 86°
2026-05-04 19:05 51.41626 12.23905 476 ft 26 kts 85°
2026-05-04 19:05 51.41638 12.24136 476 ft 17 kts 86°
2026-05-04 19:05 51.41646 12.24321 479 ft 16 kts 86°
2026-05-04 19:06 51.41653 12.24462 478 ft 10 kts 85°
2026-05-04 19:06 51.41642 12.24544 474 ft 7 kts 132°
2026-05-04 19:06 51.41602 12.24571 482 ft 7 kts 181°
2026-05-04 19:06 51.41553 12.24557 482 ft 8 kts 194°
2026-05-04 19:07 51.41516 12.24542 483 ft 1 kts 194°
2026-05-04 19:07 51.41504 12.24537 483 ft 5 kts 194°
2026-05-04 19:07 51.41447 12.24515 477 ft 8 kts 194°
2026-05-04 19:08 51.41383 12.24488 476 ft 11 kts 202°
2026-05-04 19:08 51.41349 12.24427 476 ft 0 kts 263°
2026-05-04 19:08 51.41349 12.24422 476 ft 2 kts 263°
2026-05-04 19:08 51.41329 12.24137 479 ft 64 kts 265°
2026-05-04 19:09 51.41277 12.22977 470 ft 141 kts 265°
2026-05-04 19:09 51.41206 12.21172 754 ft 170 kts 267°
2026-05-04 19:09 51.41164 12.19338 1581 ft 167 kts 269°
2026-05-04 19:09 51.41072 12.17353 1965 ft 197 kts 263°
2026-05-04 19:10 51.40869 12.15006 2164 ft 226 kts 263°
2026-05-04 19:10 51.40726 12.12407 2368 ft 241 kts 267°
2026-05-04 19:10 51.40642 12.09694 2850 ft 243 kts 267°
2026-05-04 19:10 51.40526 12.07012 3524 ft 241 kts 266°
2026-05-04 19:11 51.40392 12.04324 4117 ft 242 kts 265°
2026-05-04 19:11 51.40261 12.01634 4704 ft 243 kts 265°
2026-05-04 19:11 51.40130 11.98890 5346 ft 255 kts 265°
2026-05-04 19:11 51.39920 11.96028 6317 ft 255 kts 254°
2026-05-04 19:12 51.39217 11.93580 7758 ft 237 kts 236°
2026-05-04 19:12 51.36635 11.90133 9571 ft 247 kts 210°
2026-05-04 19:12 51.35121 11.88796 10495 ft 250 kts 209°
2026-05-04 19:13 51.33550 11.87554 11286 ft 256 kts 198°
2026-05-04 19:13 51.31790 11.87004 12118 ft 260 kts 188°
2026-05-04 19:13 51.29973 11.86695 12959 ft 264 kts 188°
2026-05-04 19:13 51.28139 11.86244 13779 ft 268 kts 192°
2026-05-04 19:14 51.26297 11.85669 14513 ft 272 kts 192°
2026-05-04 19:14 51.24423 11.85124 15276 ft 274 kts 191°
2026-05-04 19:14 51.22537 11.84604 16015 ft 277 kts 191°
2026-05-04 19:14 51.20629 11.84070 16725 ft 280 kts 192°
2026-05-04 19:15 51.18709 11.83530 17488 ft 281 kts 192°
2026-05-04 19:15 51.16809 11.82984 18253 ft 281 kts 192°
2026-05-04 19:15 51.14880 11.82433 18916 ft 281 kts 192°
2026-05-04 19:15 51.12950 11.81905 19580 ft 282 kts 192°
2026-05-04 19:16 51.10968 11.81364 19910 ft 295 kts 192°
2026-05-04 19:16 51.08940 11.80800 20541 ft 295 kts 193°
2026-05-04 19:16 51.06908 11.80217 21017 ft 304 kts 193°
2026-05-04 19:16 51.04795 11.79611 21516 ft 305 kts 193°
2026-05-04 19:17 51.02732 11.79035 22440 ft 300 kts 193°
2026-05-04 19:17 51.00640 11.78454 22816 ft 310 kts 193°
2026-05-04 19:17 50.98511 11.77867 23447 ft 311 kts 193°
2026-05-04 19:17 50.96374 11.77272 23945 ft 314 kts 193°
2026-05-04 19:18 50.94215 11.76668 24423 ft 316 kts 193°
2026-05-04 19:18 50.92042 11.76063 24947 ft 318 kts 193°
2026-05-04 19:18 50.89855 11.75456 25448 ft 320 kts 194°
2026-05-04 19:18 50.87651 11.74842 25949 ft 323 kts 194°
2026-05-04 19:19 50.85430 11.74228 26435 ft 325 kts 194°
2026-05-04 19:19 50.83197 11.73606 26950 ft 327 kts 194°
2026-05-04 19:19 50.80946 11.72984 27436 ft 329 kts 194°
2026-05-04 19:19 50.78677 11.72355 27896 ft 332 kts 194°
2026-05-04 19:20 50.76425 11.71733 28345 ft 334 kts 194°
2026-05-04 19:20 50.74129 11.71099 28772 ft 336 kts 194°
2026-05-04 19:20 50.71809 11.70548 29190 ft 341 kts 186°
2026-05-04 19:20 50.69413 11.70896 29594 ft 350 kts 172°
2026-05-04 19:21 50.67042 11.71906 30018 ft 356 kts 166°
2026-05-04 19:21 50.64703 11.73265 30362 ft 360 kts 164°
2026-05-04 19:21 50.62332 11.74614 30620 ft 364 kts 167°
2026-05-04 19:21 50.59911 11.75806 30998 ft 364 kts 168°
2026-05-04 19:22 50.57491 11.77003 31406 ft 366 kts 166°
2026-05-04 19:22 50.55072 11.78279 31755 ft 368 kts 166°
2026-05-04 19:22 50.52640 11.79559 32132 ft 369 kts 166°
2026-05-04 19:22 50.50195 11.80808 32514 ft 370 kts 166°
2026-05-04 19:23 50.47740 11.82063 32890 ft 372 kts 166°
2026-05-04 19:23 50.45287 11.83410 33257 ft 375 kts 163°
2026-05-04 19:23 50.42882 11.85047 33609 ft 379 kts 159°
2026-05-04 19:23 50.40495 11.86824 33968 ft 380 kts 160°
2026-05-04 19:24 50.38070 11.88477 34259 ft 380 kts 162°
2026-05-04 19:24 50.35618 11.90058 34418 ft 382 kts 161°
2026-05-04 19:24 50.33194 11.91686 34560 ft 385 kts 160°
2026-05-04 19:24 50.30745 11.93376 34752 ft 386 kts 161°
2026-05-04 19:25 50.28281 11.95042 34954 ft 387 kts 161°
2026-05-04 19:25 50.23252 11.98405 34983 ft 398 kts 160°
2026-05-04 19:26 50.18098 12.01881 34967 ft 407 kts 161°
2026-05-04 19:26 50.12845 12.05402 34964 ft 415 kts 161°
2026-05-04 19:27 50.07477 12.08935 34958 ft 420 kts 166°
2026-05-04 19:27 50.01775 12.10776 34964 ft 420 kts 177°
2026-05-04 19:28 49.95979 12.11962 34960 ft 427 kts 173°
2026-05-04 19:28 49.90084 12.13541 34978 ft 432 kts 175°
2026-05-04 19:29 49.84110 12.14914 34985 ft 437 kts 174°
2026-05-04 19:29 49.78074 12.16433 34990 ft 441 kts 174°
2026-05-04 19:30 49.71981 12.17879 34988 ft 445 kts 174°
2026-05-04 19:30 49.65836 12.19377 34956 ft 449 kts 174°
2026-05-04 19:31 49.59644 12.20859 34944 ft 452 kts 174°
2026-05-04 19:31 49.53415 12.22362 34928 ft 455 kts 174°
2026-05-04 19:32 49.47141 12.23864 34935 ft 457 kts 174°
2026-05-04 19:32 49.40832 12.25375 34946 ft 460 kts 174°
2026-05-04 19:33 49.34530 12.26876 34936 ft 462 kts 174°
2026-05-04 19:33 49.28161 12.28392 34934 ft 464 kts 174°
2026-05-04 19:34 49.21768 12.29909 34936 ft 465 kts 174°
2026-05-04 19:34 49.15349 12.31429 34931 ft 467 kts 174°
2026-05-04 19:35 49.08917 12.32947 34927 ft 468 kts 174°
2026-05-04 19:35 49.02473 12.34464 34922 ft 469 kts 174°
2026-05-04 19:36 48.96050 12.35971 34925 ft 470 kts 174°
2026-05-04 19:36 48.89584 12.37487 34910 ft 470 kts 174°
2026-05-04 19:37 48.83117 12.38997 34900 ft 470 kts 174°
2026-05-04 19:37 48.76654 12.40502 34899 ft 470 kts 174°
2026-05-04 19:38 48.70191 12.42005 34899 ft 469 kts 173°
2026-05-04 19:38 48.63748 12.43498 34896 ft 467 kts 174°
2026-05-04 19:39 48.57331 12.44982 34892 ft 465 kts 174°
2026-05-04 19:39 48.50936 12.46456 34891 ft 464 kts 174°
2026-05-04 19:40 48.45635 12.47669 34892 ft 463 kts 174°
2026-05-04 19:40 48.39264 12.47684 34910 ft 456 kts 187°
2026-05-04 19:41 48.32964 12.46609 34901 ft 455 kts 186°
2026-05-04 19:41 48.26641 12.45983 34905 ft 455 kts 186°
2026-05-04 19:42 48.20344 12.45098 34909 ft 454 kts 187°
2026-05-04 19:42 48.14043 12.44367 34916 ft 454 kts 186°
2026-05-04 19:43 48.07754 12.43554 34915 ft 453 kts 186°
2026-05-04 19:43 48.01469 12.42791 34920 ft 453 kts 186°
2026-05-04 19:44 47.95177 12.42002 34916 ft 453 kts 186°
2026-05-04 19:44 47.88889 12.41230 34914 ft 453 kts 186°
2026-05-04 19:45 47.82605 12.40455 34911 ft 453 kts 186°
2026-05-04 19:45 47.76321 12.39683 34913 ft 453 kts 186°
2026-05-04 19:46 47.70044 12.38914 34918 ft 453 kts 186°
2026-05-04 19:46 47.63801 12.38148 34926 ft 453 kts 186°
2026-05-04 19:47 47.57525 12.37386 34929 ft 452 kts 186°
2026-05-04 19:47 47.51263 12.36622 34938 ft 451 kts 186°
2026-05-04 19:48 47.45000 12.35862 34948 ft 451 kts 186°
2026-05-04 19:48 47.38735 12.35103 34954 ft 452 kts 186°
2026-05-04 19:49 47.32473 12.34350 34967 ft 451 kts 186°
2026-05-04 19:49 47.26212 12.33592 34980 ft 452 kts 186°
2026-05-04 19:50 47.19939 12.32839 35000 ft 452 kts 186°
2026-05-04 19:50 47.13674 12.32089 34995 ft 452 kts 186°
2026-05-04 19:51 47.07413 12.31339 35028 ft 451 kts 187°
2026-05-04 19:51 47.01152 12.30593 35057 ft 452 kts 187°
2026-05-04 19:52 46.94888 12.29847 35094 ft 451 kts 187°
2026-05-04 19:52 46.88634 12.29106 35097 ft 451 kts 187°
2026-05-04 19:53 46.82364 12.28360 35123 ft 452 kts 187°
2026-05-04 19:53 46.76068 12.27971 35149 ft 454 kts 181°
2026-05-04 19:54 46.69749 12.28202 35122 ft 454 kts 183°
2026-05-04 19:54 46.63435 12.28060 35121 ft 454 kts 182°
2026-05-04 19:55 46.57112 12.28148 35109 ft 455 kts 182°
2026-05-04 19:55 46.50781 12.28097 35085 ft 455 kts 182°
2026-05-04 19:56 46.44487 12.28130 35079 ft 455 kts 182°
2026-05-04 19:56 46.38158 12.28113 35058 ft 455 kts 183°
2026-05-04 19:57 46.31822 12.28125 35057 ft 454 kts 183°
2026-05-04 19:57 46.25505 12.28123 35063 ft 453 kts 183°
2026-05-04 19:58 46.19202 12.28123 35056 ft 452 kts 183°
2026-05-04 19:58 46.12908 12.28125 35058 ft 452 kts 183°
2026-05-04 19:59 46.06614 12.28230 35046 ft 455 kts 175°
2026-05-04 19:59 46.03551 12.29453 35058 ft 461 kts 158°
2026-05-04 19:59 46.00631 12.31318 35060 ft 457 kts 165°
2026-05-04 19:59 45.97558 12.32304 35077 ft 452 kts 176°
2026-05-04 20:00 45.94471 12.32585 35071 ft 448 kts 184°
2026-05-04 20:00 45.88253 12.32138 35067 ft 448 kts 184°
2026-05-04 20:01 45.81996 12.31936 34743 ft 445 kts 185°
2026-05-04 20:01 45.78928 12.31743 34324 ft 438 kts 186°
2026-05-04 20:01 45.75899 12.31564 33815 ft 434 kts 185°
2026-05-04 20:01 45.72887 12.31430 33262 ft 430 kts 184°
2026-05-04 20:02 45.69900 12.31292 32591 ft 429 kts 184°
2026-05-04 20:02 45.66917 12.31131 31925 ft 428 kts 184°
2026-05-04 20:02 45.63944 12.30975 31281 ft 427 kts 184°
2026-05-04 20:02 45.60978 12.30831 30582 ft 427 kts 184°
2026-05-04 20:03 45.58008 12.30683 29826 ft 427 kts 184°
2026-05-04 20:03 45.55080 12.30535 29018 ft 426 kts 183°
2026-05-04 20:03 45.52116 12.30386 28219 ft 425 kts 183°
2026-05-04 20:03 45.49162 12.30237 27431 ft 424 kts 184°
2026-05-04 20:04 45.46221 12.30090 26679 ft 422 kts 184°
2026-05-04 20:04 45.43337 12.29947 25907 ft 408 kts 184°
2026-05-04 20:04 45.40536 12.29808 25094 ft 397 kts 183°
2026-05-04 20:04 45.37806 12.29671 24303 ft 388 kts 183°
2026-05-04 20:05 45.35136 12.29517 23507 ft 380 kts 185°
2026-05-04 20:05 45.32540 12.29051 22612 ft 372 kts 191°
2026-05-04 20:05 45.30006 12.28435 21738 ft 366 kts 191°
2026-05-04 20:05 45.27515 12.27830 20901 ft 361 kts 191°
2026-05-04 20:06 45.25052 12.27233 20078 ft 356 kts 191°
2026-05-04 20:06 45.22627 12.26648 19373 ft 350 kts 191°
2026-05-04 20:06 45.20296 12.26088 19169 ft 331 kts 191°
2026-05-04 20:06 45.18002 12.25537 19047 ft 339 kts 191°
2026-05-04 20:07 45.15657 12.24969 18966 ft 344 kts 191°
2026-05-04 20:07 45.13275 12.24390 18894 ft 350 kts 191°
2026-05-04 20:07 45.10865 12.23799 18818 ft 353 kts 192°
2026-05-04 20:07 45.08406 12.23501 18720 ft 359 kts 178°
2026-05-04 20:08 45.05928 12.24019 18647 ft 362 kts 172°
2026-05-04 20:08 45.03426 12.24247 18520 ft 361 kts 178°
2026-05-04 20:08 45.00929 12.24992 17951 ft 374 kts 162°
2026-05-04 20:08 44.98500 12.26365 17196 ft 378 kts 157°
2026-05-04 20:09 44.96063 12.27791 16439 ft 377 kts 161°
2026-05-04 20:09 44.93568 12.28882 15696 ft 374 kts 168°
2026-05-04 20:09 44.91033 12.29634 14945 ft 371 kts 170°
2026-05-04 20:09 44.88520 12.30396 14268 ft 367 kts 166°
2026-05-04 20:10 44.86087 12.31352 13786 ft 358 kts 164°
2026-05-04 20:10 44.83722 12.32285 13412 ft 347 kts 166°
2026-05-04 20:10 44.81461 12.33071 13299 ft 331 kts 167°
2026-05-04 20:10 44.79279 12.33835 13252 ft 316 kts 166°
2026-05-04 20:11 44.77195 12.34604 13185 ft 305 kts 166°
2026-05-04 20:11 44.75173 12.35343 13121 ft 295 kts 166°
2026-05-04 20:11 44.73205 12.36050 13062 ft 291 kts 166°
2026-05-04 20:11 44.71249 12.36749 13068 ft 290 kts 166°
2026-05-04 20:12 44.69287 12.37465 13072 ft 293 kts 165°
2026-05-04 20:12 44.67305 12.38187 13076 ft 295 kts 165°
2026-05-04 20:12 44.65312 12.38901 13080 ft 296 kts 165°
2026-05-04 20:12 44.63312 12.39623 13081 ft 295 kts 165°
2026-05-04 20:13 44.61333 12.40335 13085 ft 292 kts 165°
2026-05-04 20:13 44.59368 12.41044 13079 ft 290 kts 165°
2026-05-04 20:13 44.57422 12.41743 13071 ft 288 kts 165°
2026-05-04 20:13 44.55483 12.42441 13073 ft 286 kts 165°
2026-05-04 20:14 44.53561 12.43133 13068 ft 284 kts 165°
2026-05-04 20:14 44.51648 12.43818 13035 ft 284 kts 165°
2026-05-04 20:14 44.49700 12.44519 12685 ft 294 kts 165°
2026-05-04 20:14 44.47700 12.45239 12293 ft 298 kts 165°
2026-05-04 20:15 44.45704 12.45955 11906 ft 293 kts 166°
2026-05-04 20:15 44.43744 12.46655 11499 ft 288 kts 166°
2026-05-04 20:15 44.41824 12.47342 11108 ft 283 kts 166°
2026-05-04 20:15 44.39945 12.48016 10707 ft 278 kts 166°
2026-05-04 20:16 44.38095 12.48676 10311 ft 275 kts 167°
2026-05-04 20:16 44.36237 12.49339 9916 ft 268 kts 167°
2026-05-04 20:16 44.34488 12.49967 9481 ft 259 kts 167°
2026-05-04 20:16 44.32754 12.50382 9026 ft 249 kts 179°
2026-05-04 20:17 44.31050 12.50560 8593 ft 243 kts 170°
2026-05-04 20:17 44.29422 12.51129 8166 ft 239 kts 166°
2026-05-04 20:17 44.27833 12.51742 7751 ft 235 kts 166°
2026-05-04 20:17 44.26252 12.52349 7209 ft 238 kts 166°
2026-05-04 20:18 44.24646 12.52965 6660 ft 241 kts 166°
2026-05-04 20:18 44.23024 12.53586 6098 ft 243 kts 166°
2026-05-04 20:18 44.21389 12.54211 5535 ft 245 kts 166°
2026-05-04 20:18 44.19737 12.54843 4972 ft 246 kts 166°
2026-05-04 20:19 44.18067 12.55367 4389 ft 246 kts 178°
2026-05-04 20:19 44.16429 12.54874 3809 ft 243 kts 212°
2026-05-04 20:19 44.15298 12.53192 3325 ft 240 kts 245°
2026-05-04 20:19 44.15049 12.50930 2858 ft 239 kts 278°
2026-05-04 20:20 44.15710 12.48859 2414 ft 234 kts 303°
2026-05-04 20:20 44.16719 12.47108 1945 ft 230 kts 307°
2026-05-04 20:20 44.17736 12.45414 1546 ft 222 kts 308°
2026-05-04 20:20 44.18685 12.43861 1523 ft 202 kts 308°
2026-05-04 20:21 44.19590 12.42436 1552 ft 192 kts 308°
2026-05-04 20:21 44.20238 12.40924 1577 ft 177 kts 279°
2026-05-04 20:21 44.19052 12.38451 1613 ft 178 kts 187°
2026-05-04 20:22 44.17854 12.38805 1604 ft 179 kts 153°
2026-05-04 20:22 44.16794 12.39679 1608 ft 177 kts 152°
2026-05-04 20:22 44.15716 12.40504 1585 ft 175 kts 154°
2026-05-04 20:22 44.14668 12.41313 1581 ft 173 kts 150°
2026-05-04 20:23 44.13660 12.42261 1653 ft 176 kts 147°
2026-05-04 20:23 44.12700 12.43351 1706 ft 180 kts 142°
2026-05-04 20:23 44.11802 12.44583 1753 ft 183 kts 137°
2026-05-04 20:23 44.10933 12.45855 1793 ft 180 kts 137°
2026-05-04 20:24 44.10117 12.47060 1897 ft 167 kts 135°
2026-05-04 20:24 44.09327 12.48260 1765 ft 159 kts 136°
2026-05-04 20:24 44.08644 12.49344 1638 ft 143 kts 133°
2026-05-04 20:24 44.08019 12.50487 1534 ft 150 kts 130°
2026-05-04 20:25 44.07406 12.51652 1531 ft 150 kts 130°
2026-05-04 20:25 44.06749 12.52809 1430 ft 153 kts 134°
2026-05-04 20:25 44.06067 12.53935 1242 ft 152 kts 132°
2026-05-04 20:25 44.05638 12.54693 1105 ft 148 kts 130°
2026-05-04 20:26 44.05030 12.55809 956 ft 144 kts 130°
2026-05-04 20:26 44.04410 12.56902 663 ft 143 kts 130°
2026-05-04 20:26 44.03812 12.57940 425 ft 133 kts 127°
2026-05-04 20:26 44.03240 12.58986 255 ft 139 kts 128°
2026-05-04 20:27 44.02665 12.60025 54 ft 131 kts 127°
2026-05-04 20:27 44.02162 12.60941 35 ft 106 kts 129°
2026-05-04 20:27 44.01783 12.61617 35 ft 65 kts 128°
2026-05-04 20:27 44.01543 12.62046 34 ft 51 kts 128°
2026-05-04 20:28 44.01405 12.62291 32 ft 19 kts 128°
2026-05-04 20:28 44.01383 12.62419 32 ft 12 kts 50°
2026-05-04 20:28 44.01437 12.62484 34 ft 10 kts 38°
2026-05-04 20:28 44.01500 12.62530 35 ft 10 kts 351°
2026-05-04 20:29 44.01557 12.62456 35 ft 13 kts 309°
2026-05-04 20:29 44.01618 12.62347 35 ft 15 kts 307°
2026-05-04 20:29 44.01694 12.62209 35 ft 19 kts 308°
2026-05-04 20:29 44.01781 12.62056 35 ft 21 kts 308°
2026-05-04 20:30 44.01856 12.61920 35 ft 14 kts 307°
2026-05-04 20:30 44.01912 12.61816 35 ft 14 kts 308°
2026-05-04 20:30 44.01989 12.61776 35 ft 12 kts 33°
2026-05-04 20:30 44.02059 12.61850 35 ft 13 kts 38°
2026-05-04 20:31 44.02102 12.61885 35 ft 4 kts
2026-05-04 20:31 44.02125 12.61873 35 ft 1 kts 329°
2026-05-04 20:31 44.02131 12.61869 35 ft 1 kts 329°
2026-05-04 20:31 44.02132 12.61868 38 ft 2 kts 328°
2026-05-04 20:32 44.02159 12.61831 35 ft 7 kts 312°
2026-05-04 20:32 44.02193 12.61825 35 ft 6 kts 24°
2026-05-04 20:32 44.02207 12.61838 35 ft 0 kts 36°
2026-05-04 20:32 44.02212 12.61842 35 ft 2 kts 35°
2026-05-04 20:33 44.02213 12.61843 35 ft 0 kts 35°